Location: Potomac Astrometric Observatory
(39.0475°N, 77.2064°W)
Time: 14:18:44
(UTC-04:00)

Hubble Space Telescope - Visible Passes

Search period start: 19 April 2019 00:00
Search period end: 29 April 2019 00:00
Orbit: 537 x 540 km, 28.5° (Epoch: 19 April)

Date Brightness Start Highest point End Pass type
(mag) Time Alt. Az. Time Alt. Az. Time Alt. Az.
23 Apr 3.2 05:42:20 10° S 05:43:27 11° SSE 05:44:34 10° SSE visible
24 Apr 3.1 05:30:58 10° SSW 05:32:49 13° SSE 05:34:40 10° SE visible
25 Apr 2.9 05:19:56 10° SSW 05:22:11 14° SSE 05:24:27 10° SE visible
26 Apr 2.8 05:09:46 12° SSW 05:11:34 16° S 05:14:07 10° SE visible
27 Apr 2.6 04:59:43 15° SSW 05:00:57 17° S 05:03:41 10° SE visible
28 Apr 2.5 04:49:41 17° S 04:50:20 18° S 04:53:11 10° SE visible
